Dewpoint
26 21 19 18 24 24 27 25 20 20 27 28 29 28 28 27 28 28 31 34 39 36 36 40 41 43 45 47 49 50 49 50 50 50 50 50 51 52 52 51 52 51 53 54 54 55 55 56 57 57 56 55 55 55 55 55 55 54 54 54 50 52 54 53 52 53 51 50 50 49 49 48 49 52 54 51 52 53 53 54 54 55 55 54 54 57
22 21 20 21 19 20 19 22 26 24 26 27 27 26 26 27 25 27 31 36 35 37 36 41 41 41 43 45 47 48 49 50 50 50 50 50 51 51 51 51 51 52 52 53 53 55 56 56 57 57 56 59 54 56 56 55 56 55 56 54 52 52 53 53 53 55 52 51 50 49 49 49 49 50 50 51 51 53 54 53 54 55 55 54 55 57
20 18 16 17 21 20 22 23 24 24 24 26 25 26 24 25 28 28 31 37 38 37 37 40 40 40 42 44 45 48 49 49 49 50 50 50 50 51 51 51 51 50 51 51 53 54 55 55 55 57 57 57 56 57 57 56 56 56 55 55 55 53 53 53 54 52 51 52 54 51 51 50 51 50 52 53 54 53 52 53 54 54 54 54 55 55
20 17 18 17 20 18 18 21 22 22 24 23 21 18 20 28 26 24 28 39 40 37 38 40 39 39 41 43 44 46 48 48 47 48 48 49 49 50 50 51 50 50 51 51 51 53 54 55 55 55 55 56 56 57 56 56 56 57 57 55 55 54 54 53 55 60 53 55 53 52 52 52 51 51 54 50 51 50 51 53 53 53 54 54 56 56
18 16 19 16 15 17 16 18 20 21 19 22 21 18 19 22 24 27 30 38 39 40 40 38 35 36 38 40 41 43 45 46 46 46 47 48 49 49 49 49 50 50 51 51 51 52 53 54 54 54 55 55 56 56 57 56 56 56 56 56 55 54 54 53 57 58 55 55 51 51 51 52 51 50 48 48 48 49 53 53 52 53 53 55 56 57
15 15 17 17 18 15 13 13 19 23 17 22 24 13 13 15 26 33 36 35 34 34 38 32 25 28 34 35 38 41 42 43 44 45 45 47 48 48 48 48 49 51 52 52 51 52 53 53 54 53 55 55 55 56 56 56 56 56 56 56 55 55 55 54 54 56 56 56 50 49 48 47 47 47 46 46 47 48 49 51 53 52 53 55 56 57
15 16 17 18 17 18 16 16 14 17 16 21 15 16 14 25 34 35 33 30 27 28 36 29 22 19 30 33 38 39 39 41 44 43 44 46 47 48 48 49 49 49 50 51 51 52 53 53 53 53 54 55 55 56 56 56 57 57 57 56 56 56 56 57 56 55 57 52 51 50 49 48 47 46 47 47 48 49 51 52 51 51 52 54 56 57
22 13 15 17 16 17 19 21 19 18 20 17 15 15 31 34 33 31 28 30 30 35 34 31 30 25 25 30 33 36 40 40 42 43 44 44 45 47 48 49 49 49 50 50 51 51 52 52 53 53 54 54 55 55 56 56 57 56 56 56 56 56 58 57 56 55 56 53 51 50 50 52 48 48 48 48 48 51 54 51 50 50 52 53 55 56
17 14 14 15 18 17 18 17 18 16 17 18 15 17 29 32 31 22 24 26 27 31 28 29 30 25 25 29 33 39 38 39 40 41 42 42 43 46 48 49 49 50 50 50 50 51 52 52 52 53 53 54 54 55 55 55 56 56 56 57 57 57 57 57 57 56 56 56 52 51 50 51 54 49 50 52 54 51 51 49 49 50 51 52 54 55
17 16 14 16 17 17 16 18 22 19 22 21 23 27 28 28 28 25 26 26 25 24 20 27 29 23 25 28 32 36 37 37 38 39 40 41 43 45 47 49 50 50 50 50 51 51 51 52 52 52 53 53 53 54 55 56 56 56 56 56 57 57 57 57 56 56 55 55 56 51 50 49 48 52 51 49 48 48 48 48 48 49 50 52 53 54
18 37 34 17 16 15 16 19 21 23 21 23 22 19 20 23 24 28 26 27 23 15 18 24 31 27 22 27 30 32 33 37 38 39 40 41 43 45 47 48 49 50 50 51 51 51 51 51 52 53 53 53 53 54 54 55 55 55 56 56 56 57 56 57 56 56 55 54 54 51 51 50 49 48 49 48 48 48 48 47 48 49 49 51 53 54
19 22 18 20 30 21 18 18 23 24 26 23 25 21 19 22 22 21 21 23 15 16 22 25 28 28 21 25 30 34 37 40 39 38 38 38 39 42 44 47 48 50 50 50 51 52 52 52 52 52 53 53 54 54 54 55 55 56 56 56 56 56 56 56 56 55 54 53 53 52 51 51 50 49 49 48 47 47 47 47 48 49 49 51 53 54
19 20 19 21 40 18 21 19 23 23 22 20 24 22 19 14 15 9 17 12 11 17 24 28 29 26 25 27 30 33 35 36 39 40 39 40 41 42 43 45 47 49 50 51 51 52 52 52 52 52 53 53 53 54 54 55 55 56 56 56 55 55 56 55 55 54 53 53 52 53 52 51 51 50 50 48 48 48 47 48 48 48 49 50 52 53
21 22 22 21 24 30 22 19 21 20 22 20 21 21 18 9 9 7 12 14 16 21 23 24 26 25 28 30 33 33 34 35 37 41 43 44 43 43 43 44 46 48 49 50 50 51 52 52 52 53 53 53 53 54 54 55 55 55 56 55 55 55 55 55 54 54 53 53 53 53 52 52 54 51 50 49 49 48 48 48 48 48 49 50 52 53
16 19 22 22 24 22 23 23 23 23 23 20 22 20 18 17 15 6 12 8 12 21 23 26 21 22 24 27 33 34 36 37 39 42 44 44 44 44 45 45 46 47 47 48 49 51 51 52 52 52 52 52 53 53 54 54 54 55 55 55 55 55 55 54 54 53 53 53 53 53 53 52 52 52 52 50 50 49 48 49 49 49 50 50 52 53
20 20 21 23 21 22 23 23 29 28 25 26 23 26 22 17 25 15 21 19 18 17 19 24 21 25 29 32 35 36 36 39 40 39 43 40 42 43 43 44 46 47 48 48 48 49 50 51 51 51 51 52 52 53 53 53 54 54 54 54 55 55 55 54 55 54 53 53 53 53 52 52 53 55 53 52 54 52 49 48 49 49 50 51 52 53
23 18 21 26 22 24 27 28 29 25 20 26 22 21 23 25 25 20 21 24 23 21 16 19 27 30 31 30 31 34 36 37 37 37 38 39 41 41 42 44 45 46 47 47 48 48 49 49 48 49 50 51 51 52 53 53 54 54 54 54 54 55 54 54 55 54 54 54 53 53 53 52 52 53 52 51 51 52 51 50 49 50 51 52 53 54
21 21 26 22 25 23 31 28 31 31 29 29 22 25 29 29 27 22 14 16 14 14 15 24 25 26 24 23 32 33 32 34 36 36 38 38 39 40 41 43 45 45 45 44 45 47 48 49 49 49 49 51 52 52 52 53 54 54 54 54 54 55 54 55 54 55 55 54 53 53 53 52 52 52 52 51 50 50 51 51 51 52 52 52 54 55
29 19 24 27 24 22 30 30 29 28 32 27 25 30 24 17 19 26 19 12 12 13 12 20 24 25 24 26 30 29 31 32 34 36 36 36 37 38 40 41 42 43 43 43 42 44 45 46 47 48 48 50 51 52 52 53 53 53 54 54 54 55 55 55 55 55 55 55 54 54 53 53 52 52 51 50 50 50 49 49 50 50 52 52 53 56
31 20 23 26 25 28 31 29 20 25 29 30 30 26 34 26 24 22 17 22 19 10 13 18 23 22 28 28 31 30 32 33 34 35 35 35 37 39 39 40 41 42 43 42 43 43 44 45 46 47 48 49 50 50 51 52 52 53 53 54 55 55 54 54 54 55 55 54 54 54 54 53 52 52 51 50 49 49 49 49 49 50 50 52 54 54
20 28 16 25 28 28 24 26 23 25 24 25 24 22 26 26 30 27 26 23 20 13 12 13 14 22 28 32 34 32 33 34 34 35 36 37 38 38 40 41 42 42 43 43 44 44 44 45 46 47 48 49 50 51 53 51 52 53 53 53 54 54 54 54 54 54 54 54 54 54 53 53 52 51 52 51 50 49 49 49 52 50 50 53 53 52
17 20 21 24 26 25 26 31 29 31 30 25 26 21 21 18 18 21 19 26 24 21 15 13 14 22 27 38 35 34 35 36 36 36 37 38 38 39 40 41 41 42 42 44 45 46 45 46 47 48 48 49 49 49 50 50 52 52 52 53 53 53 54 54 54 54 54 54 54 53 54 53 52 51 51 51 50 50 49 48 49 51 52 52 52 53
21 28 26 20 24 26 29 29 36 35 36 33 32 27 27 22 23 21 16 21 25 26 24 22 19 21 32 38 40 39 39 38 38 38 38 38 39 39 40 40 42 43 43 45 46 46 46 47 47 48 50 50 49 50 50 50 51 52 52 53 53 53 54 54 55 54 54 54 54 54 53 53 52 51 51 50 50 49 48 48 48 51 52 52 52 53
53 27 25 26 28 32 32 35 40 41 38 33 34 34 30 26 26 23 21 22 21 26 23 20 19 23 31 39 41 41 41 41 40 39 37 37 38 39 40 41 41 42 43 45 46 47 46 47 47 48 49 49 50 50 49 49 50 51 51 52 52 53 53 54 54 54 54 54 54 53 53 52 52 51 51 50 49 48 48 48 49 51 51 52 52 51
18 20 26 22 20 23 26 29 32 34 37 32 31 34 34 33 32 27 28 26 22 27 25 21 14 19 32 38 39 39 38 38 37 38 40 38 39 40 41 41 42 43 44 44 45 45 46 46 46 47 48 48 49 49 49 49 50 50 51 51 52 52 53 53 54 54 54 54 53 53 53 52 51 51 50 50 49 48 48 48 48 50 51 51 51 51
26 25 26 20 16 13 11 14 19 21 28 31 34 33 34 31 28 24 18 22 16 22 25 19 18 24 29 33 35 36 38 37 38 39 41 40 39 40 40 41 42 43 43 44 45 45 45 46 46 46 47 48 48 49 49 49 50 50 50 51 51 51 52 52 52 53 53 53 53 53 52 52 51 50 50 50 49 48 48 48 48 48 52 52 51 51
28 30 26 25 22 22 22 25 30 33 29 26 29 32 31 30 29 26 24 19 18 21 24 25 24 25 29 30 33 35 35 36 37 38 38 38 39 41 41 42 42 43 43 44 45 45 45 44 44 45 46 47 48 48 48 49 50 50 50 50 51 51 51 52 51 51 52 52 52 52 52 51 51 50 50 50 49 49 48 48 48 48 49 53 52 50
32 26 29 29 28 29 29 31 34 33 27 28 28 29 32 30 28 24 16 15 24 20 15 24 27 25 27 30 31 33 34 34 36 37 38 39 40 40 41 42 47 45 45 44 43 44 44 45 45 45 46 47 48 48 47 48 49 49 49 49 50 50 50 51 51 51 51 52 51 51 52 51 51 50 50 50 49 48 48 48 48 48 50 52 52 51
31 23 30 30 30 32 34 34 35 32 29 28 30 29 29 31 29 23 24 26 23 15 19 21 27 26 29 30 30 31 33 33 33 34 36 38 40 41 41 41 41 41 42 43 43 43 44 44 44 45 46 47 47 45 46 48 48 48 48 49 49 49 49 50 51 51 51 51 51 51 51 51 50 50 50 51 49 48 48 47 47 48 49 51 52 52
32 27 31 32 30 30 31 34 35 31 30 30 31 31 31 32 31 30 29 28 26 24 25 24 28 29 30 30 33 33 35 35 35 37 40 40 40 41 41 40 40 41 42 42 42 43 44 45 45 45 45 46 46 44 44 46 47 47 47 47 47 47 48 50 50 50 50 50 51 51 50 50 50 49 49 49 49 48 48 47 47 48 49 50 51 51
29 24 34 31 27 27 30 34 34 34 31 28 30 31 31 31 30 30 30 31 34 28 29 28 28 30 33 35 34 35 36 38 39 39 39 40 41 41 41 40 40 40 41 42 43 43 44 45 46 46 45 46 45 44 44 45 46 46 46 47 46 46 48 50 50 50 49 50 50 50 49 49 49 49 48 49 49 48 47 46 47 48 49 49 50 50
31 24 31 27 22 25 29 32 32 32 32 30 28 27 26 27 26 29 29 32 26 27 27 28 29 31 33 34 35 35 35 35 36 37 38 39 40 41 41 40 40 40 41 42 43 43 44 46 46 46 46 45 44 44 44 44 44 46 45 44 45 45 49 49 49 49 49 50 49 49 49 49 49 49 48 48 47 47 47 47 47 48 48 49 49 50
31 29 24 24 22 21 28 31 31 29 28 26 26 29 30 31 29 30 31 33 33 28 27 25 30 33 33 36 30 30 32 33 36 38 38 39 39 40 40 40 40 40 41 42 43 44 45 46 46 47 46 45 44 45 44 44 44 44 44 43 45 48 49 48 48 48 48 48 48 48 48 49 48 48 48 48 47 47 46 46 47 48 48 48 49 50
32 29 23 28 19 20 27 30 28 22 16 21 29 34 33 31 31 28 29 33 35 33 32 33 33 32 31 32 29 28 29 32 33 36 39 38 37 39 40 41 40 41 42 43 43 44 45 46 46 46 46 45 45 45 45 46 44 44 45 46 48 48 48 48 48 48 48 49 48 48 48 48 48 47 48 47 47 46 46 46 46 47 48 49 49 49
31 30 26 28 25 24 26 26 19 12 19 29 33 36 37 35 35 33 33 34 35 35 34 34 33 31 31 32 31 29 30 32 38 39 39 39 39 39 39 40 41 41 42 42 43 44 45 45 45 46 45 45 45 46 46 46 46 47 47 47 46 47 48 48 48 47 47 48 48 48 47 47 47 46 46 45 45 46 46 46 46 47 48 49 48 48
29 29 26 25 23 22 21 15 8 15 24 30 31 35 38 37 36 32 31 33 35 36 36 34 35 34 31 32 33 34 36 37 40 41 40 40 39 39 39 39 40 42 42 43 43 43 44 45 45 45 45 47 46 47 47 45 46 47 47 46 45 45 46 47 48 48 47 47 47 47 47 46 46 45 45 44 45 45 45 46 46 46 47 49 47 47
34 32 29 27 26 21 19 14 21 26 27 29 27 32 33 29 30 28 24 29 33 36 36 35 35 35 34 33 35 37 39 39 37 38 40 41 42 41 40 40 41 42 43 43 44 44 45 45 45 46 46 46 46 46 46 46 46 46 46 45 45 44 44 45 44 45 45 47 45 45 45 46 45 45 44 44 44 44 45 45 46 46 47 47 47 46
34 32 32 27 25 23 21 22 21 20 17 23 29 33 37 37 36 34 27 26 33 35 37 35 34 34 34 33 36 38 38 34 33 34 35 39 42 43 43 42 42 43 44 44 45 45 45 46 46 46 47 46 46 46 46 46 46 46 46 45 45 44 44 43 42 43 44 43 44 44 44 45 45 44 45 44 44 44 44 45 45 46 48 46 46 45
33 34 32 29 24 25 23 21 18 16 21 26 29 32 33 38 37 34 29 24 29 31 36 36 34 34 34 33 35 36 34 30 31 33 35 37 38 43 44 44 43 44 44 45 45 45 45 46 46 46 46 45 46 46 47 46 45 45 45 46 46 45 44 44 44 44 44 43 43 43 44 45 45 44 44 44 44 44 44 44 45 45 46 46 45 45
33 28 26 26 24 23 21 20 21 18 20 27 33 34 35 39 34 29 19 22 29 31 34 36 35 34 34 35 37 36 33 31 31 32 35 36 37 41 44 43 43 43 44 44 45 45 45 46 45 45 46 46 46 47 46 45 46 46 46 46 45 44 45 46 46 46 46 46 45 45 45 44 46 46 44 44 44 44 44 45 45 44 44 45 45 45
27 26 26 29 26 24 24 21 21 25 29 32 34 36 37 38 30 23 18 27 33 33 34 36 35 35 36 37 37 34 34 33 33 34 37 39 39 40 43 44 43 43 43 43 44 46 45 45 46 46 46 46 47 47 46 46 46 47 47 47 46 46 47 47 47 47 47 47 47 46 45 45 44 45 45 44 44 44 45 44 44 43 44 44 44 44
24 26 25 24 23 26 25 22 27 26 30 34 34 38 38 29 21 23 30 33 34 33 34 36 35 36 37 37 37 34 34 36 37 37 37 38 39 40 42 43 43 43 43 43 44 44 45 45 45 46 46 46 47 47 46 46 46 47 46 45 46 47 47 48 48 48 47 47 47 47 47 46 45 45 45 45 45 44 43 44 44 43 43 43 43 43
27 26 27 25 26 23 20 21 20 19 27 36 36 31 31 25 30 31 32 34 36 37 35 37 37 37 38 37 38 37 36 36 36 36 36 37 40 40 41 42 42 42 43 42 42 43 45 44 45 45 46 46 46 46 46 46 45 46 46 46 46 47 48 48 48 48 48 48 48 48 48 47 46 45 46 45 46 43 43 43 44 43 44 42 42 41
30 22 21 23 28 24 22 21 23 27 30 36 33 27 31 30 34 34 34 31 37 39 40 39 39 39 38 37 37 37 37 37 37 36 37 38 40 41 42 42 42 42 42 43 43 42 45 44 44 45 45 46 46 46 46 46 46 46 46 45 46 47 47 47 47 48 47 48 48 48 48 48 48 46 45 46 46 44 43 42 43 43 43 42 42 41
28 28 29 21 29 27 26 29 30 33 34 36 36 34 34 33 35 36 36 34 36 38 40 38 37 38 39 38 37 37 36 37 37 37 36 36 38 40 41 42 42 42 42 42 42 43 44 44 43 44 44 45 45 46 46 46 46 46 45 46 46 47 47 47 47 46 47 47 47 47 47 47 46 46 45 45 45 44 44 42 42 42 42 42 41 41
31 32 33 27 27 32 33 33 35 35 36 35 35 37 37 37 36 38 37 36 38 40 40 37 37 38 38 38 37 36 36 36 36 37 38 38 39 40 42 42 42 43 43 42 42 41 43 44 44 44 44 44 45 45 46 46 46 45 46 46 46 46 46 46 46 46 47 47 46 47 46 46 46 44 45 45 45 45 44 43 44 42 42 41 41 41
29 33 30 27 32 26 27 33 32 31 31 36 36 36 37 38 37 39 38 38 38 40 40 41 40 39 40 40 37 36 36 37 37 37 38 39 40 40 40 41 42 42 42 42 42 42 42 43 43 43 44 44 44 45 45 46 46 46 46 46 46 46 46 46 46 47 47 47 47 46 45 45 46 45 45 44 44 45 46 46 43 43 43 42 41 42
28 34 30 31 31 28 29 31 33 35 36 36 37 37 36 37 39 40 39 38 39 39 40 40 40 39 40 40 40 38 38 38 38 38 38 39 40 40 41 41 41 41 41 42 42 42 42 43 42 43 43 44 44 44 45 45 46 46 47 47 47 47 46 46 46 47 47 47 46 46 46 45 45 46 46 44 44 44 44 44 44 43 42 42 44 42
28 35 27 32 30 33 33 32 33 33 33 34 35 38 40 40 40 40 41 41 40 39 39 40 41 39 40 38 39 40 39 39 39 39 39 39 40 41 42 42 42 41 41 41 41 42 42 42 43 42 43 43 43 44 45 45 46 46 47 47 48 46 46 47 45 46 46 46 44 46 45 46 45 45 45 44 43 44 44 44 44 43 43 43 46 45
30 29 33 30 27 26 27 29 32 28 30 32 34 35 35 38 40 41 39 40 42 41 41 40 41 41 41 40 40 40 39 39 39 39 40 40 41 41 42 42 42 42 42 42 42 42 43 44 43 43 43 43 43 45 45 45 45 46 47 47 47 46 47 47 46 45 45 45 45 45 45 45 45 45 45 44 44 43 43 41 41 43 43 44 43 41
31 31 31 28 30 28 31 33 35 33 32 33 33 35 37 39 41 40 38 36 39 41 41 40 39 38 39 41 42 41 40 40 40 40 40 41 42 42 43 42 42 42 42 43 42 42 43 43 45 44 43 43 44 45 45 45 45 46 47 47 47 47 47 46 46 45 45 45 45 44 45 45 45 44 45 44 44 43 43 43 42 38 39 40 42 40